Home   Weather   Prenzlau   Past weeks

Flag for Germany Past Weather in Prenzlau, Brandenburg, Germany — Yesterday and Last 2 Weeks

Now
52 °F

Clear.


Feels Like: 49 °F
Forecast: 54 / 69 °F
Wind: 8 mph from Southeast

Location: Szczecin Airport

Current Time: Sep 27, 2016 at 9:03:46 PM

Latest Report: Sep 27, 2016 at 8:30 PM


Visibility: 10 mi

Pressure: 30.30 "Hg

Humidity: 77%

Dew Point: 45 °F

Location of PrenzlauLocation

Past Weather in Prenzlau — Graph

°F

Prenzlau Temperature Yesterday

Maximum temperature yesterday: 68 °F (at 1:30 PM)
Minimum temperature yesterday: 48 °F (at 6:00 AM)
Average temperature yesterday: 57 °F

High & Low Weather Summary for the Past Weeks

 TemperatureHumidityPressure
High84 °F (Sep 13, 2:00 PM)100% (Sep 20, 1:00 AM)30.33 "Hg (Sep 20, 1:00 AM)
Low39 °F (Sep 22, 6:00 AM)34% (Sep 14, 1:00 PM)29.89 "Hg (Sep 16, 3:00 PM)
Average60 °F71%30.11 "Hg
* Reported Sep 12 8:00 PM — Sep 27 8:00 PM, Prenzlau, Weather by CustomWeather, © 2016

Note: Actual official high and low records may vary slightly from our data, if they occured in-between our weather recording intervals... More about our weather records

Advertising

Prenzlau Weather History for the Previous 24 Hours

Scroll right to see more
 ConditionsComfort  
Time TempWeatherWind HumidityBarometerVisibility
8:00 PM
Tue, Sep 27
54 °FClear.5 mph77%30.30 "Hg10 mi
7:30 PM57 °FClear.7 mph67%30.30 "Hg10 mi
7:00 PM57 °FClear.5 mph72%30.30 "Hg10 mi
6:30 PM61 °FSunny.6 mph63%30.30 "Hg10 mi
6:00 PM64 °FSunny.5 mph52%30.30 "Hg10 mi
5:30 PM66 °FPassing clouds.5 mph49%30.30 "HgN/A
5:00 PM66 °FPassing clouds.7 mph46%30.30 "HgN/A
4:30 PM68 °FPassing clouds.6 mph43%30.30 "HgN/A
4:00 PM68 °FPassing clouds.6 mph46%30.30 "HgN/A
3:30 PM68 °FPassing clouds.6 mph46%30.30 "HgN/A
3:00 PM66 °FPassing clouds.6 mph49%30.30 "HgN/A
2:30 PM66 °FPassing clouds.7 mph46%30.30 "HgN/A
2:00 PM66 °FPassing clouds.7 mph49%30.30 "HgN/A
1:30 PM66 °FPassing clouds.8 mph49%30.30 "HgN/A
1:00 PM64 °FPassing clouds.10 mph56%30.30 "HgN/A
12:30 PM64 °FPassing clouds.9 mph56%30.33 "HgN/A
12:00 PM63 °FSunny.8 mph59%30.33 "Hg10 mi
11:30 AM61 °FPassing clouds.8 mph63%30.33 "HgN/A
11:00 AM59 °FSunny.9 mph68%30.30 "Hg10 mi
10:30 AM57 °FPassing clouds.9 mph72%30.30 "HgN/A
10:00 AM55 °FPassing clouds.7 mph72%30.30 "HgN/A
9:30 AM54 °FSunny.7 mph77%30.30 "Hg10 mi
9:00 AM50 °FSunny.8 mph82%30.30 "Hg10 mi
8:30 AM48 °FSunny.8 mph87%30.30 "Hg10 mi
8:00 AM46 °FSunny.8 mph87%30.30 "Hg10 mi
7:30 AM45 °FSunny.7 mph93%30.30 "Hg10 mi
7:00 AM46 °FSunny.5 mph87%30.27 "Hg10 mi
6:30 AM46 °FClear.6 mph87%30.27 "Hg10 mi
6:00 AM46 °FClear.6 mph87%30.27 "Hg10 mi
5:30 AM48 °FClear.6 mph82%30.27 "Hg10 mi
5:00 AM48 °FClear.6 mph87%30.27 "Hg10 mi
4:30 AM48 °FClear.5 mph87%30.27 "Hg10 mi
4:00 AM50 °FClear.8 mph82%30.27 "Hg10 mi
3:30 AM50 °FClear.10 mph82%30.24 "Hg10 mi
3:00 AM50 °FClear.10 mph82%30.24 "Hg10 mi
2:30 AM52 °FClear.10 mph77%30.24 "Hg10 mi
2:00 AM52 °FClear.10 mph77%30.24 "Hg10 mi
1:30 AM52 °FClear.10 mph82%30.24 "Hg10 mi
1:00 AM52 °FClear.10 mph82%30.24 "Hg10 mi
12:30 AM52 °FClear.8 mph82%30.24 "Hg10 mi
12:00 AM52 °FClear.8 mph82%30.24 "Hg10 mi
11:30 PM
Mon, Sep 26
52 °FClear.7 mph82%30.24 "Hg10 mi
11:00 PM52 °FClear.7 mph82%30.24 "Hg10 mi
10:30 PM55 °FClear.7 mph72%30.24 "Hg10 mi
10:00 PM55 °FClear.8 mph72%30.24 "Hg10 mi
9:30 PM50 °FClear.5 mph82%30.24 "Hg10 mi
9:00 PM50 °FClear.3 mph82%30.24 "Hg10 mi
Weather by CustomWeather, © 2016

See weather overviewHow to use our weather pages